• In Italy
  • List of Countries
  • For 7 days
  • Water Temperature
  • Satellite Maps
  • Weather Map
  • Weather Widgets
  • user-avatar
    Login

    Hourly Weather Agra

    Today, 24 September, Sunday

    Time Temperature Precipitation Wind Pressure Humidity
    00:00 +27°C° 0 mm 1 mps 740 mmHg 82%
    01:00 +27°C° 0 mm 1 mps 739 mmHg 82%
    02:00 +26°C° 0 mm 2 mps 739 mmHg 83%
    03:00 +26°C° 0 mm 2 mps 739 mmHg 83%
    04:00 +26°C° 0 mm 2 mps 739 mmHg 84%
    05:00 +26°C° 0 mm 2 mps 740 mmHg 84%
    06:00 +27°C° 0 mm 2 mps 740 mmHg 81%
    07:00 +27°C° 0 mm 2 mps 740 mmHg 78%
    08:00 +28°C° 0 mm 3 mps 741 mmHg 75%
    09:00 +30°C° 0 mm 3 mps 741 mmHg 68%
    10:00 +33°C° 0 mm 3 mps 741 mmHg 61%
    11:00 +35°C° 0 mm 4 mps 741 mmHg 54%
    12:00 +35°C° 0 mm 4 mps 740 mmHg 50%
    13:00 +36°C° 0 mm 4 mps 740 mmHg 47%
    14:00 +37°C° 0 mm 5 mps 739 mmHg 43%
    15:00 +36°C° 0 mm 4 mps 739 mmHg 46%
    16:00 +35°C° 0 mm 3 mps 738 mmHg 49%
    17:00 +35°C° 0 mm 3 mps 738 mmHg 53%
    18:00 +33°C° 0 mm 3 mps 738 mmHg 58%
    19:00 +31°C° 0 mm 2 mps 739 mmHg 64%
    20:00 +30°C° 0 mm 2 mps 739 mmHg 69%
    21:00 +29°C° 0 mm 2 mps 739 mmHg 71%
    22:00 +29°C° 0 mm 1 mps 739 mmHg 74%
    23:00 +29°C° 0 mm 1 mps 739 mmHg 76%

    Tomorrow, 25 September, Monday

    Time Temperature Precipitation Wind Pressure Humidity
    00:00 +28°C° 0 mm 1 mps 738 mmHg 77%
    01:00 +28°C° 0 mm 1 mps 738 mmHg 77%
    02:00 +28°C° 0 mm 2 mps 738 mmHg 78%
    03:00 +28°C° 0 mm 2 mps 738 mmHg 77%
    04:00 +28°C° 0 mm 2 mps 738 mmHg 76%
    05:00 +28°C° 0 mm 2 mps 738 mmHg 76%
    06:00 +29°C° 0 mm 2 mps 739 mmHg 70%
    07:00 +30°C° 0 mm 2 mps 739 mmHg 64%
    08:00 +31°C° 0 mm 3 mps 740 mmHg 58%
    09:00 +34°C° 0 mm 3 mps 740 mmHg 51%
    10:00 +36°C° 0 mm 4 mps 740 mmHg 44%
    11:00 +37°C° 0 mm 4 mps 739 mmHg 37%
    12:00 +38°C° 0 mm 4 mps 739 mmHg 34%
    13:00 +40°C° 0 mm 4 mps 738 mmHg 31%
    14:00 +41°C° 0 mm 4 mps 737 mmHg 28%
    15:00 +39°C° 0 mm 3 mps 737 mmHg 31%
    16:00 +38°C° 0 mm 2 mps 737 mmHg 34%
    17:00 +36°C° 0 mm 1 mps 737 mmHg 38%
    18:00 +35°C° 0 mm 1 mps 737 mmHg 39%
    19:00 +34°C° 0 mm 1 mps 737 mmHg 40%
    20:00 +32°C° 0 mm 2 mps 738 mmHg 42%
    21:00 +32°C° 0 mm 1 mps 738 mmHg 43%
    22:00 +31°C° 0 mm 1 mps 738 mmHg 44%
    23:00 +31°C° 0 mm 1 mps 738 mmHg 46%

    Day after tomorrow, 26 September, Tuesday

    Time Temperature Precipitation Wind Pressure Humidity
    00:00 +30°C° 0 mm 2 mps 738 mmHg 46%
    01:00 +30°C° 0 mm 2 mps 738 mmHg 47%
    02:00 +30°C° 0 mm 2 mps 737 mmHg 47%
    03:00 +29°C° 0 mm 2 mps 738 mmHg 48%
    04:00 +29°C° 0 mm 2 mps 738 mmHg 49%
    05:00 +29°C° 0 mm 2 mps 738 mmHg 49%
    06:00 +30°C° 0 mm 3 mps 739 mmHg 48%
    07:00 +31°C° 0 mm 3 mps 739 mmHg 47%
    08:00 +33°C° 0 mm 4 mps 740 mmHg 46%
    09:00 +35°C° 0 mm 4 mps 740 mmHg 41%
    10:00 +36°C° 0 mm 5 mps 740 mmHg 36%
    11:00 +39°C° 0 mm 5 mps 740 mmHg 32%
    12:00 +40°C° 0 mm 5 mps 739 mmHg 30%
    13:00 +41°C° 0 mm 5 mps 739 mmHg 28%
    14:00 +41°C° 0 mm 5 mps 738 mmHg 27%
    15:00 +40°C° 0 mm 4 mps 738 mmHg 31%
    16:00 +38°C° 0 mm 3 mps 738 mmHg 34%
    17:00 +37°C° 0 mm 2 mps 738 mmHg 38%
    18:00 +35°C° 0 mm 2 mps 738 mmHg 41%
    19:00 +33°C° 0 mm 1 mps 738 mmHg 44%
    20:00 +32°C° 0 mm 1 mps 739 mmHg 46%
    21:00 +32°C° 0 mm 1 mps 739 mmHg 47%
    22:00 +31°C° 0 mm 1 mps 739 mmHg 48%
    23:00 +31°C° 0 mm 2 mps 739 mmHg 49%

    27 September, Wednesday

    Time Temperature Precipitation Wind Pressure Humidity
    00:00 +30°C° 0 mm 1 mps 739 mmHg 49%
    01:00 +30°C° 0 mm 1 mps 738 mmHg 49%
    02:00 +30°C° 0 mm 1 mps 738 mmHg 49%
    03:00 +29°C° 0 mm 1 mps 738 mmHg 49%
    04:00 +29°C° 0 mm 2 mps 738 mmHg 49%
    05:00 +29°C° 0 mm 2 mps 738 mmHg 49%
    06:00 +30°C° 0 mm 2 mps 739 mmHg 47%
    07:00 +31°C° 0 mm 3 mps 739 mmHg 46%
    08:00 +33°C° 0 mm 3 mps 740 mmHg 44%
    09:00 +35°C° 0 mm 3 mps 740 mmHg 40%
    10:00 +37°C° 0 mm 4 mps 740 mmHg 35%
    11:00 +38°C° 0 mm 4 mps 740 mmHg 31%
    12:00 +40°C° 0 mm 4 mps 739 mmHg 30%
    13:00 +40°C° 0 mm 4 mps 738 mmHg 28%
    14:00 +41°C° 0 mm 4 mps 738 mmHg 27%
    15:00 +40°C° 0 mm 4 mps 737 mmHg 31%
    16:00 +38°C° 0 mm 3 mps 737 mmHg 35%
    17:00 +37°C° 0 mm 2 mps 737 mmHg 39%
    18:00 +35°C° 0 mm 2 mps 738 mmHg 41%
    19:00 +34°C° 0 mm 2 mps 738 mmHg 44%
    20:00 +32°C° 0 mm 1 mps 738 mmHg 46%
    21:00 +32°C° 0 mm 1 mps 738 mmHg 48%
    22:00 +31°C° 0 mm 1 mps 738 mmHg 49%
    23:00 +31°C° 0 mm 1 mps 738 mmHg 51%

    28 September, Thursday

    Time Temperature Precipitation Wind Pressure Humidity
    00:00 +30°C° 0 mm 1 mps 738 mmHg 51%
    01:00 +30°C° 0 mm 1 mps 738 mmHg 52%
    02:00 +29°C° 0 mm 1 mps 738 mmHg 53%
    03:00 +29°C° 0 mm 1 mps 738 mmHg 53%
    04:00 +29°C° 0 mm 1 mps 738 mmHg 53%
    05:00 +29°C° 0 mm 1 mps 738 mmHg 53%
    06:00 +30°C° 0 mm 1 mps 738 mmHg 50%
    07:00 +31°C° 0 mm 1 mps 739 mmHg 47%
    08:00 +32°C° 0 mm 1 mps 739 mmHg 44%
    09:00 +34°C° 0 mm 1 mps 739 mmHg 40%
    10:00 +36°C° 0 mm 2 mps 739 mmHg 35%
    11:00 +38°C° 0 mm 2 mps 739 mmHg 31%
    12:00 +39°C° 0 mm 3 mps 739 mmHg 30%
    13:00 +39°C° 0 mm 3 mps 738 mmHg 28%
    14:00 +40°C° 0 mm 3 mps 737 mmHg 27%
    15:00 +39°C° 0 mm 3 mps 737 mmHg 31%
    16:00 +38°C° 0 mm 2 mps 737 mmHg 35%
    17:00 +37°C° 0 mm 2 mps 737 mmHg 38%
    18:00 +35°C° 0 mm 2 mps 737 mmHg 40%
    19:00 +34°C° 0 mm 2 mps 738 mmHg 42%
    20:00 +32°C° 0 mm 2 mps 738 mmHg 44%
    21:00 +32°C° 0 mm 1 mps 738 mmHg 45%
    22:00 +31°C° 0 mm 1 mps 738 mmHg 46%
    23:00 +31°C° 0 mm 1 mps 738 mmHg 48%

    29 September, Friday

    Time Temperature Precipitation Wind Pressure Humidity
    00:00 +30°C° 0 mm 1 mps 738 mmHg 49%
    01:00 +28°C° 0 mm 0 mps 738 mmHg 50%
    02:00 +28°C° 0 mm 0 mps 737 mmHg 51%
    03:00 +27°C° 0 mm 0 mps 738 mmHg 52%
    04:00 +27°C° 0 mm 0 mps 738 mmHg 53%
    05:00 +29°C° 0 mm 1 mps 738 mmHg 53%
    06:00 +30°C° 0 mm 1 mps 738 mmHg 51%
    07:00 +31°C° 0 mm 1 mps 739 mmHg 48%
    08:00 +32°C° 0 mm 1 mps 739 mmHg 46%
    09:00 +34°C° 0 mm 1 mps 739 mmHg 41%
    10:00 +35°C° 0 mm 1 mps 739 mmHg 36%
    11:00 +37°C° 0 mm 1 mps 739 mmHg 32%
    12:00 +39°C° 0 mm 2 mps 738 mmHg 29%
    13:00 +39°C° 0 mm 2 mps 737 mmHg 27%
    14:00 +40°C° 0 mm 2 mps 736 mmHg 25%
    15:00 +39°C° 0 mm 2 mps 736 mmHg 28%
    16:00 +38°C° 0 mm 2 mps 736 mmHg 31%
    17:00 +36°C° 0 mm 1 mps 736 mmHg 35%
    18:00 +36°C° 0 mm 2 mps 737 mmHg 37%
    19:00 +35°C° 0 mm 2 mps 737 mmHg 39%
    20:00 +34°C° 0 mm 2 mps 737 mmHg 41%
    21:00 +32°C° 0 mm 2 mps 738 mmHg 42%
    22:00 +31°C° 0 mm 2 mps 738 mmHg 44%
    23:00 +31°C° 0 mm 2 mps 738 mmHg 46%
    Show more